Powrót do katalogu

STARLINK-3563

AktywnyŁącznośćVLEO
NORAD 51858·PAYLOAD·🇺🇸 United States

Wystrzelony Mar 3, 2022 z Cape Canaveral Space Force Station

Loading…

Następne Przeloty (najbliższe 24 godziny)

TLE

ŚwieżeSource: CelesTrak SupGP

Epoka: Sep 14, 2026, 21:33 UTC

1 51858C 22022G   26257.89840278  .00037684  00000+0  11133-2 0  2578
2 51858  53.1563 235.8701 0001268  96.7505 273.8350 15.34374062    11

Śledź STARLINK-3563 w czasie rzeczywistym z AllMySat

Download on the App Store